Вернуться в каталог

COSMOS 1275 DEB

АктивенPO
NORAD 42215·DEBRIS·🇷🇺 Russia

Запущен Jun 4, 1981 с Plesetsk Cosmodrome

Loading…

Ближайшие Пролёты (ближайшие 24 часа)

TLE

УстаревшееSource: Space-Track

Эпоха: Aug 28, 2026, 08:35 UTC

1 42215U 81053UF  26240.35808530  .00000200  00000-0  17250-3 0  9997
2 42215  82.8957 279.8210 0105430 213.4635 145.9833 13.79409340640611

Отслеживайте COSMOS 1275 DEB в реальном времени с AllMySat

Download on the App Store